BREEZE-KM R/B, 44518

Orbit data source: Space-Track

BREEZE-KM R/B, 44518 is space debris in SSO originally from a launch on Fri, 30 Aug 2019 UTC launched from the Plesetsk Missile And Space Complex (PKMTR). Debris objects in space refer to the collection of defunct objects orbiting the Earth. Examples of debris include non-operational satellites, rocket bodies, and fragments generated from explosions, collisions, or faulty payload assembly.

Loading next visibility...
BREEZE-KM R/B details
Identifier
44518, 2019-057B
Orbit
SSO
Last TLE update7 hours ago
Origin
Flag of CISVVKO VKS (CIS)
ManufacturerKhrunichev
MissionSpacecraft
Bus & MotorBRIZ, S5.92
Mass2,370 kg wet, 2,370 kg dry
Launch date (UTC)
2019-08-30 (5 years ago)
Launch vehicleUnknown
Launch site
Plesetsk Missile And Space Complex (PKMTR)
Object type
Payload
Rocket body
Debris
Shape & HBRHex Cyl + 1 Rod, 4.1 m
Radar Cross Section10.190 m², Large (>1 m²)

Expand to show TLE details & history

TLE from 7 hours ago
0 BREEZE-KM R/B
1 44518U 19057B   24361.25668577  .00000304  00000-0  12209-3 0  9990
2 44518  99.0963 113.6140 0200627  79.1086 283.2597 14.25258420276918
Epoch: 2024-12-26T06:09Z
Definitive object data (Epoch: 2024-12-26T06:09:37.65Z)
Latitude0.00001°
Longitude-74.03156°
Altitude780.22 km
Speed7.48 km/s
True Right ascension07h 34m 27s
True Declination0° 00' 00"
Sunlit
Object was in full shadow at TLE epoch
Visualization TLE readout
Latitude75.07047°
Longitude-110.39683°
Altitude676.212 km
Speed7.601 km/s
Apparent Right ascension01h 44m 17s
Apparent Declination25° 02' 05"
Sunlit
Object is in full shadow
Visualization observer readout
Local Sidereal Time12:36:53
Azimuth343.4° N
Elevation-23.176°
Doppler factor1
Orbital elements
Apogee altitude948.902 km
Perigee altitude660.684 km
Semi-major axis7,182.93 km
Eccentricity0.0200627
Inclination99.0963°
RAAN113.614°
Arg. of periapsis79.1086°
True anomaly281.00961°
Mean anomaly283.2597°
Eccentric anomaly282.13588°
Mean motion3.56526 °/min
BSTAR0.00012209
Orbital period100.97 mins
Loading maneuver chart data...
Loading historical data...
Loading historical data...
Loading historical data...
Loading historical data...
Loading historical data...
Loading historical data...
Loading historical data...
Other satellites on launch #57 in the year 2019 (2019-08-30 UTC)

BREEZE-KM R/B Visibility forecast

Observer location: undefined°, undefined

Span
Click to sort rows by Start time (UTC) header in descending order
Start Az.
Max El. time (UTC)
Max El. Az.
Max El.
End time (UTC)
End Az.
9 mins2024-12-26 20:12:14.381Z27.514° NE2024-12-26 20:16:14.381Z85.885° E35.687°2024-12-26 20:21:14.381Z173.972° S
5 mins2024-12-26 21:54:14.381Z324.082° NNW2024-12-26 21:56:14.381Z293.539° NW17.934°2024-12-26 21:59:14.381Z254.191° W
7 mins2024-12-27 07:34:14.381Z157.649° S2024-12-27 07:37:14.381Z60.789° ENE44.334°2024-12-27 07:41:14.381Z349.291° N
|